KB1JDX Weather Reports


Display with metric or nautical units.
time (UTC)temp
F
wind
direction
speed
MPH
gust
MPH
rain 1hr
in
rain 24hr
in
rain mn
in
humidity
%
barometer
mb
20190618172123 70 189 0.0 5.0 0.00 0.00 0.00 77 1014.2
20190618162123 70 188 1.0 7.0 0.00 0.00 0.00 78 1014.5
20190618152123 70 216 4.0 5.0 0.00 0.00 0.00 78 1014.5
20190618142121 69 228 0.0 7.0 0.00 0.00 0.00 78 1014.7
20190618132121 68 232 4.0 5.0 0.00 0.00 0.00 77 1015.1
20190618122122 66 214 3.0 2.0 0.00 0.00 0.00 76 1014.8
20190618112124 65 214 0.0 2.0 0.00 0.00 0.00 75 1014.7
20190618102122 64 214 0.0 2.0 0.00 0.00 0.00 75 1014.7
20190618092123 64 214 0.0 0.0 0.00 0.00 0.00 76 1014.6
20190618082123 64 214 0.0 0.0 0.00 0.00 0.00 76 1014.7
20190618072122 65 214 0.0 0.0 0.00 0.00 0.00 76 1015.0
20190618062122 65 214 0.0 0.0 0.00 0.00 0.00 77 1015.1
20190618052123 66 214 0.0 2.0 0.00 0.00 0.00 77 1015.3
20190618042123 66 214 0.0 2.0 0.00 0.00 0.00 77 1015.5
20190618032122 66 214 0.0 0.0 0.00 0.00 0.00 77 1015.6
20190618022123 68 214 0.0 3.0 0.00 0.00 0.00 77 1015.4
20190618012124 69 214 0.0 2.0 0.00 0.00 0.00 78 1015.2
20190618002124 72 214 0.0 8.0 0.00 0.00 0.00 77 1014.6
20190617232124 74 201 5.0 6.0 0.00 0.00 0.00 75 1014.7
20190617222123 78 38 0.0 4.0 0.00 0.02 0.00 66 1014.4
20190617212122 78 36 0.0 4.0 0.00 0.02 0.00 64 1014.5
20190617202124 78 38 2.0 6.0 0.00 0.04 0.00 61 1014.7
20190617192124 78 287 1.0 4.0 0.00 0.04 0.00 63 1015.0
20190617182123 78 279 0.0 4.0 0.00 0.04 0.00 63 1014.9